Back to catalog

FENGYUN 1C DEB

AliveSSO
NORAD 31294·DEBRIS·🇨🇳 China

Launched May 10, 1999 from Taiyuan Satellite Launch Center

Loading…

Next Passes (next 24 hours)

TLE

FreshSource: Space-Track

Epoch: Sep 14, 2026, 04:32 UTC

1 31294U 99025BPC 26257.18949800  .00000442  00000-0  23558-3 0  9991
2 31294  98.5608 246.6988 0098020 269.2290  89.7653 14.15741002  7504

Track FENGYUN 1C DEB in real time with AllMySat

Download on the App Store